FW8535 Weather Reports


time (UTC)temp
C
wind
direction
speed
KPH
gust
KPH
rain 1hr
cm
rain 24hr
cm
rain mn
cm
humidity
%
barometer
mb
20260508152004 16 46 6.4 12.9 0.00 0.00 0.00 30 1010.7
20260508151501 16 347 1.6 12.9 0.00 0.00 0.00 31 1010.9
20260508151002 16 42 3.2 11.3 0.00 0.00 0.00 32 1010.9
20260508150502 16 50 4.8 9.7 0.00 0.00 0.00 33 1010.8
20260508150004 16 308 3.2 12.9 0.00 0.00 0.00 32 1011.0
20260508145559 16 86 4.8 16.1 0.00 0.00 0.00 32 1010.9
20260508145100 16 5 6.4 16.1 0.00 0.00 0.00 32 1011.0
20260508144602 15 311 4.8 12.9 0.00 0.00 0.00 33 1011.0
20260508143558 15 5 3.2 12.9 0.00 0.00 0.00 35 1011.2
20260508143119 15 355 3.2 8.0 0.00 0.00 0.00 35 1011.0
20260508142554 15 348 3.2 9.7 0.00 0.00 0.00 37 1011.0
20260508142053 15 315 4.8 9.7 0.00 0.00 0.00 37 1011.2
20260508141552 15 315 3.2 8.0 0.00 0.00 0.00 38 1011.2
20260508141052 15 315 3.2 12.9 0.00 0.00 0.00 39 1011.2
20260508140549 14 325 4.8 12.9 0.00 0.00 0.00 39 1011.1
20260508135550 13 292 1.6 8.0 0.00 0.00 0.00 40 1011.1
20260508135046 13 309 1.6 8.0 0.00 0.00 0.00 41 1011.1
20260508134544 13 312 3.2 12.9 0.00 0.00 0.00 42 1011.0
20260508133546 12 303 0.0 9.7 0.00 0.00 0.00 46 1011.1
20260508133049 12 302 3.2 9.7 0.00 0.00 0.00 46 1010.9
20260508132544 11 294 1.6 9.7 0.00 0.00 0.00 48 1010.9
20260508132042 11 303 1.6 8.0 0.00 0.00 0.00 50 1010.8
20260508131541 11 310 1.6 8.0 0.00 0.00 0.00 50 1010.8
20260508131040 10 294 3.2 6.4 0.00 0.00 0.00 51 1010.7
20260508130538 10 321 1.6 6.4 0.00 0.00 0.00 53 1010.6
20260508130038 9 290 0.0 6.4 0.00 0.00 0.00 55 1010.6
20260508125538 8 287 0.0 3.2 0.00 0.00 0.00 57 1010.6
20260508125036 8 287 0.0 6.4 0.00 0.00 0.00 58 1010.5
20260508124536 8 282 0.0 6.4 0.00 0.00 0.00 59 1010.5
20260508123532 7 309 0.0 4.8 0.00 0.00 0.00 60 1010.4
20260508123034 7 309 1.6 6.4 0.00 0.00 0.00 61 1010.3
20260508122530 7 310 3.2 6.4 0.00 0.00 0.00 61 1010.2
20260508122030 7 284 1.6 6.4 0.00 0.00 0.00 62 1010.3
20260508121530 7 309 0.0 4.8 0.00 0.00 0.00 62 1010.1
20260508121029 7 309 1.6 6.4 0.00 0.00 0.00 62 1010.1
20260508120528 6 308 1.6 6.4 0.00 0.00 0.00 63 1010.1
20260508120028 6 307 1.6 6.4 0.00 0.00 0.00 63 1010.1
20260508115527 6 304 1.6 6.4 0.00 0.00 0.00 64 1010.0
20260508115028 6 302 3.2 6.4 0.00 0.00 0.00 65 1010.0
20260508114527 6 317 0.0 6.4 0.00 0.00 0.00 65 1009.8
20260508113526 6 308 1.6 4.8 0.00 0.00 0.00 64 1009.9
20260508113025 7 308 1.6 4.8 0.00 0.00 0.00 63 1009.7
20260508112527 7 307 1.6 8.0 0.00 0.00 0.00 64 1009.6
20260508112023 7 304 3.2 8.0 0.00 0.00 0.00 64 1009.4
20260508111523 7 316 1.6 6.4 0.00 0.00 0.00 63 1009.3
20260508111022 7 24 1.6 8.0 0.00 0.00 0.00 63 1009.4
20260508110520 7 355 4.8 9.7 0.00 0.00 0.00 64 1009.4
20260508110019 7 22 6.4 9.7 0.00 0.00 0.00 64 1009.3
20260508105519 7 294 0.0 12.9 0.00 0.00 0.00 65 1009.2
20260508105018 7 308 3.2 12.9 0.00 0.00 0.00 65 1008.9
20260508104517 7 35 1.6 9.7 0.00 0.00 0.00 65 1008.9
20260508103516 8 313 4.8 9.7 0.00 0.00 0.00 66 1008.7
20260508103020 8 297 3.2 12.9 0.00 0.00 0.00 65 1008.6
20260508102514 8 281 3.2 11.3 0.00 0.00 0.00 65 1008.5
20260508102013 8 287 4.8 12.9 0.00 0.00 0.00 64 1008.4
20260508101512 8 284 4.8 16.1 0.00 0.00 0.00 63 1008.4
20260508101013 9 307 6.4 17.7 0.00 0.00 0.00 63 1008.4
20260508100511 9 284 9.7 17.7 0.00 0.00 0.00 63 1008.3
20260508100020 9 292 6.4 17.7 0.00 0.00 0.00 64 1008.1
20260508095511 9 317 9.7 19.3 0.00 0.00 0.00 65 1008.2
20260508095013 9 285 11.3 20.9 0.00 0.00 0.00 64 1008.0
20260508094512 10 336 11.3 20.9 0.00 0.00 0.00 64 1008.1
20260508093511 10 293 12.9 25.7 0.00 0.00 0.00 65 1008.1
20260508093008 9 279 11.3 25.7 0.00 0.00 0.00 66 1008.1
20260508092510 9 279 9.7 19.3 0.00 0.00 0.00 66 1008.2
20260508092007 10 300 9.7 19.3 0.00 0.00 0.00 65 1007.9
20260508091506 10 277 9.7 17.7 0.00 0.00 0.00 65 1008.0
20260508091006 10 275 9.7 17.7 0.00 0.00 0.00 65 1007.8
20260508090605 10 281 9.7 14.5 0.00 0.00 0.00 66 1007.9
20260508090005 9 300 6.4 16.1 0.00 0.00 0.00 67 1007.8
20260508085504 9 292 6.4 12.9 0.00 0.00 0.00 67 1007.8
20260508085007 9 317 4.8 12.9 0.00 0.00 0.00 68 1007.9
20260508084505 8 302 4.8 12.9 0.00 0.00 0.00 68 1007.7
20260508083505 8 291 4.8 8.0 0.00 0.00 0.00 69 1007.8
20260508083005 9 299 1.6 9.7 0.00 0.00 0.00 68 1007.8
20260508082504 9 304 6.4 11.3 0.00 0.00 0.00 66 1007.8
20260508082004 10 327 6.4 16.1 0.00 0.00 0.00 65 1007.9
20260508081504 10 292 6.4 19.3 0.00 0.00 0.00 66 1008.0
20260508081003 10 275 6.4 19.3 0.00 0.00 0.00 67 1007.9
20260508080502 9 274 4.8 11.3 0.00 0.00 0.00 68 1008.1
20260508080006 9 284 4.8 8.0 0.00 0.00 0.00 68 1008.0
20260508075503 8 273 3.2 9.7 0.00 0.00 0.00 68 1008.2
20260508075004 8 272 4.8 9.7 0.00 0.00 0.00 67 1008.0
20260508074502 9 272 3.2 6.4 0.00 0.00 0.00 67 1008.1
20260508073503 9 272 4.8 11.3 0.00 0.00 0.00 64 1008.3
20260508073003 10 272 4.8 11.3 0.00 0.00 0.00 63 1008.2
20260508072502 10 271 4.8 14.5 0.00 0.00 0.00 62 1008.3
20260508072002 10 258 6.4 14.5 0.00 0.00 0.00 61 1008.2
20260508071502 10 271 4.8 14.5 0.00 0.00 0.00 61 1008.2
20260508071100 10 241 4.8 14.5 0.00 0.00 0.00 59 1008.4
20260508070603 10 245 6.4 12.9 0.00 0.00 0.00 59 1008.2
20260508065559 10 254 4.8 11.3 0.00 0.00 0.00 59 1008.2
20260508065101 10 244 4.8 9.7 0.00 0.00 0.00 58 1008.3
20260508064600 10 253 3.2 8.0 0.00 0.00 0.00 57 1008.3
20260508063553 9 250 4.8 12.9 0.00 0.00 0.00 57 1008.4
20260508063054 9 240 6.4 12.9 0.00 0.00 0.00 55 1008.3
20260508062552 9 240 4.8 12.9 0.00 0.00 0.00 54 1008.4
20260508062054 9 244 6.4 11.3 0.00 0.00 0.00 53 1008.3
20260508061552 10 254 6.4 11.3 0.00 0.00 0.00 53 1008.3
20260508061051 10 244 6.4 11.3 0.00 0.00 0.00 53 1008.5
20260508060551 10 251 4.8 11.3 0.00 0.00 0.00 51 1008.4
20260508060051 9 248 4.8 9.7 0.00 0.00 0.00 53 1008.6
20260508055551 9 263 6.4 9.7 0.00 0.00 0.00 52 1008.6
20260508055051 9 263 4.8 9.7 0.00 0.00 0.00 53 1008.7
20260508054554 9 263 6.4 9.7 0.00 0.00 0.00 53 1008.7
20260508053553 8 262 6.4 9.7 0.00 0.00 0.00 51 1008.8
20260508053056 8 262 4.8 9.7 0.00 0.00 0.00 51 1008.8
20260508052553 8 261 4.8 6.4 0.00 0.00 0.00 50 1008.9
20260508052050 8 261 4.8 6.4 0.00 0.00 0.00 50 1008.8
20260508051602 9 261 3.2 6.4 0.00 0.00 0.00 49 1008.7
20260508051050 10 261 3.2 6.4 0.00 0.00 0.00 48 1009.0
20260508050550 10 261 3.2 6.4 0.00 0.00 0.00 47 1009.0
20260508045549 10 261 4.8 9.7 0.00 0.00 0.00 48 1009.1
20260508045049 10 261 4.8 6.4 0.00 0.00 0.00 48 1008.9
20260508044554 10 261 3.2 6.4 0.00 0.00 0.00 46 1008.9
20260508043550 10 261 3.2 6.4 0.00 0.00 0.00 46 1008.9
20260508043050 10 259 3.2 6.4 0.00 0.00 0.00 46 1008.8
20260508042550 10 259 3.2 6.4 0.00 0.00 0.00 46 1008.7
20260508042050 10 259 3.2 6.4 0.00 0.00 0.00 46 1008.7
20260508041554 11 257 3.2 8.0 0.00 0.00 0.00 45 1008.8
20260508041050 11 258 3.2 8.0 0.00 0.00 0.00 45 1009.0
20260508040549 11 292 1.6 4.8 0.00 0.00 0.00 45 1008.9
20260508040057 11 292 0.0 0.0 0.00 0.00 0.00 46 1008.9
20260508035552 11 292 0.0 0.0 0.00 0.00 0.00 46 1008.9
20260508035049 11 292 0.0 0.0 0.00 0.00 0.00 45 1009.0
20260508034549 11 292 0.0 1.6 0.00 0.00 0.00 46 1009.1
20260508033550 10 292 1.6 3.2 0.00 0.00 0.00 45 1009.0
20260508033048 11 292 1.6 3.2 0.00 0.00 0.00 45 1009.2
20260508032547 11 292 1.6 3.2 0.00 0.00 0.00 44 1009.2
20260508032047 11 292 1.6 4.8 0.00 0.00 0.00 44 1009.0
20260508031546 11 292 3.2 4.8 0.00 0.00 0.00 43 1009.1
20260508031046 11 292 1.6 4.8 0.00 0.00 0.00 43 1009.0
20260508030546 11 292 1.6 4.8 0.00 0.00 0.00 42 1009.1
20260508030052 11 292 1.6 4.8 0.00 0.00 0.00 43 1009.0
20260508025545 11 292 3.2 4.8 0.00 0.00 0.00 42 1009.0
20260508025045 11 292 3.2 4.8 0.00 0.00 0.00 42 1009.1
20260508024545 11 292 1.6 4.8 0.00 0.00 0.00 42 1009.0
20260508023546 11 292 1.6 3.2 0.00 0.00 0.00 40 1008.8
20260508023045 12 292 1.6 4.8 0.00 0.00 0.00 38 1008.9
20260508022546 12 292 1.6 4.8 0.00 0.00 0.00 37 1008.7
20260508022048 13 292 3.2 4.8 0.00 0.00 0.00 34 1008.7
20260508021545 14 292 0.0 1.6 0.00 0.00 0.00 34 1008.8
20260508021044 15 292 0.0 1.6 0.00 0.00 0.00 33 1008.7
20260508020547 15 292 0.0 1.6 0.00 0.00 0.00 32 1008.7
20260508020044 16 293 0.0 1.6 0.00 0.00 0.00 31 1008.6
20260508015544 16 293 0.0 0.0 0.00 0.00 0.00 30 1008.7
20260508015044 17 293 0.0 1.6 0.00 0.00 0.00 30 1008.6
20260508014544 17 293 0.0 1.6 0.00 0.00 0.00 30 1008.6
20260508013548 17 293 1.6 6.4 0.00 0.00 0.00 29 1008.6
20260508013048 17 292 0.0 6.4 0.00 0.00 0.00 29 1008.7
20260508012548 17 265 1.6 8.0 0.00 0.00 0.00 28 1008.7
20260508012049 17 310 3.2 9.7 0.00 0.00 0.00 28 1008.5
20260508011548 17 283 3.2 12.9 0.00 0.00 0.00 28 1008.6
20260508011047 18 309 4.8 12.9 0.00 0.00 0.00 27 1008.6
20260508010547 18 309 3.2 12.9 0.00 0.00 0.00 27 1008.6
20260508010049 18 307 4.8 12.9 0.00 0.00 0.00 27 1008.7
20260508005547 18 284 3.2 12.9 0.00 0.00 0.00 27 1008.7
20260508005048 18 290 3.2 17.7 0.00 0.00 0.00 27 1008.7
20260508004552 18 323 8.0 17.7 0.00 0.00 0.00 27 1008.8
20260508003549 18 295 8.0 14.5 0.00 0.00 0.00 28 1008.7
20260508003049 18 317 6.4 20.9 0.00 0.00 0.00 28 1008.6
20260508002546 18 259 9.7 20.9 0.00 0.00 0.00 27 1008.8
20260508002045 18 348 8.0 16.1 0.00 0.00 0.00 28 1008.7
20260508001546 18 274 8.0 16.1 0.00 0.00 0.00 28 1008.7
20260508001045 18 257 8.0 20.9 0.00 0.00 0.00 28 1008.6
20260508000546 18 287 9.7 19.3 0.00 0.00 0.00 28 1008.6
20260508000047 19 345 6.4 16.1 0.00 0.00 0.00 28 1008.8
20260507235547 19 322 6.4 14.5 0.00 0.00 0.00 28 1008.7
20260507235046 19 298 6.4 14.5 0.00 0.00 0.00 27 1008.6
20260507234553 19 5 6.4 14.5 0.00 0.00 0.00 27 1008.6
20260507233544 19 326 4.8 12.9 0.00 0.00 0.00 27 1008.6
20260507233103 19 296 4.8 14.5 0.00 0.00 0.00 26 1008.6
20260507232543 19 320 8.0 14.5 0.00 0.00 0.00 25 1008.6
20260507232049 20 308 4.8 14.5 0.00 0.00 0.00 24 1008.6
20260507231544 19 288 4.8 16.1 0.00 0.00 0.00 26 1008.5
20260507231042 19 312 6.4 17.7 0.00 0.00 0.00 24 1008.6
20260507230545 19 285 6.4 17.7 0.00 0.00 0.00 25 1008.6
20260507230047 18 286 8.0 16.1 0.00 0.00 0.00 27 1008.6
20260507225542 18 300 6.4 16.1 0.00 0.00 0.00 26 1008.5
20260507225042 18 324 8.0 17.7 0.00 0.00 0.00 26 1008.6
20260507224541 18 344 6.4 17.7 0.00 0.00 0.00 26 1008.7
20260507223540 18 262 4.8 19.3 0.00 0.00 0.00 26 1008.7
20260507223054 18 279 6.4 19.3 0.00 0.00 0.00 26 1008.6
20260507222540 18 249 9.7 17.7 0.00 0.00 0.00 25 1008.8
20260507222038 18 286 8.0 19.3 0.00 0.00 0.00 26 1008.7
20260507221542 18 293 9.7 20.9 0.00 0.00 0.00 24 1008.8
20260507221040 18 269 8.0 20.9 0.00 0.00 0.00 24 1008.7
20260507220537 18 265 4.8 17.7 0.00 0.00 0.00 25 1008.8
20260507220040 18 270 8.0 22.5 0.00 0.00 0.00 23 1008.8
20260507215537 19 286 6.4 16.1 0.00 0.00 0.00 22 1008.8
20260507215036 20 292 9.7 22.5 0.00 0.00 0.00 22 1008.9
20260507214535 20 304 6.4 22.5 0.00 0.00 0.00 20 1009.0
20260507213542 20 221 3.2 19.3 0.00 0.00 0.00 21 1009.0
20260507213036 20 275 11.3 19.3 0.00 0.00 0.00 20 1009.2
20260507212539 19 349 6.4 19.3 0.00 0.00 0.00 21 1009.2
20260507212035 19 321 8.0 19.3 0.00 0.00 0.00 21 1009.4
20260507211546 19 306 6.4 14.5 0.00 0.00 0.00 20 1009.3
20260507211035 19 317 4.8 14.5 0.00 0.00 0.00 22 1009.4
20260507210535 19 271 8.0 14.5 0.00 0.00 0.00 21 1009.6
20260507210047 18 300 4.8 16.1 0.00 0.00 0.00 22 1009.6
20260507205534 19 360 8.0 16.1 0.00 0.00 0.00 20 1009.6
20260507205035 18 254 4.8 14.5 0.00 0.00 0.00 22 1009.6
20260507204542 18 265 6.4 14.5 0.00 0.00 0.00 22 1009.5
20260507203530 18 275 3.2 22.5 0.00 0.00 0.00 21 1009.6
20260507203030 19 292 8.0 22.5 0.00 0.00 0.00 20 1009.6
20260507202529 19 316 6.4 14.5 0.00 0.00 0.00 20 1009.6
20260507202031 19 300 6.4 14.5 0.00 0.00 0.00 20 1009.7
20260507201528 19 293 4.8 14.5 0.00 0.00 0.00 22 1009.8
20260507201028 19 327 4.8 16.1 0.00 0.00 0.00 21 1009.8
20260507200526 18 349 8.0 17.7 0.00 0.00 0.00 21 1009.7
20260507200027 18 315 6.4 17.7 0.00 0.00 0.00 21 1009.8
20260507195529 18 259 4.8 14.5 0.00 0.00 0.00 21 1009.8
20260507195027 18 323 4.8 14.5 0.00 0.00 0.00 20 1009.9
20260507194534 18 306 6.4 17.7 0.00 0.00 0.00 21 1009.9
20260507193528 18 315 3.2 14.5 0.00 0.00 0.00 21 1010.1
20260507193028 18 218 3.2 16.1 0.00 0.00 0.00 21 1010.1
20260507192527 18 313 6.4 16.1 0.00 0.00 0.00 21 1010.1
20260507192025 17 315 6.4 19.3 0.00 0.00 0.00 22 1010.0
20260507191524 17 234 4.8 20.9 0.00 0.00 0.00 20 1010.1
20260507191023 17 331 6.4 16.1 0.00 0.00 0.00 21 1010.2
20260507190523 17 250 9.7 16.1 0.00 0.00 0.00 22 1010.2
20260507190037 17 34 4.8 14.5 0.00 0.00 0.00 22 1010.2
20260507185525 17 315 6.4 19.3 0.00 0.00 0.00 21 1010.4
20260507185020 17 355 4.8 19.3 0.00 0.00 0.00 22 1010.3
20260507184527 17 323 6.4 17.7 0.00 0.00 0.00 23 1010.4
20260507183514 16 218 6.4 11.3 0.00 0.00 0.00 24 1010.5
20260507183015 16 146 1.6 8.0 0.00 0.00 0.00 24 1010.6
20260507182512 16 146 1.6 16.1 0.00 0.00 0.00 23 1010.8
20260507182012 16 140 8.0 19.3 0.00 0.00 0.00 23 1010.8
20260507181511 16 80 9.7 19.3 0.00 0.00 0.00 23 1010.8
20260507181010 15 238 4.8 16.1 0.00 0.00 0.00 24 1011.0
20260507180510 15 323 8.0 16.1 0.00 0.00 0.00 24 1011.0
20260507180012 15 222 6.4 17.7 0.00 0.00 0.00 23 1011.0
20260507175509 15 266 9.7 17.7 0.00 0.00 0.00 24 1011.1
20260507175008 15 190 8.0 16.1 0.00 0.00 0.00 24 1011.0
20260507174511 15 117 6.4 12.9 0.00 0.00 0.00 24 1011.1
20260507173513 15 213 8.0 14.5 0.00 0.00 0.00 24 1011.1
20260507173017 15 222 3.2 9.7 0.00 0.00 0.00 25 1011.1
20260507172506 15 323 4.8 8.0 0.00 0.00 0.00 24 1011.1
20260507172007 15 150 4.8 12.9 0.00 0.00 0.00 24 1011.2
20260507171505 14 182 3.2 12.9 0.00 0.00 0.00 24 1011.2
20260507171004 14 187 6.4 12.9 0.00 0.00 0.00 24 1011.2
20260507170504 15 183 4.8 11.3 0.00 0.00 0.00 24 1011.4
20260507170005 14 105 4.8 11.3 0.00 0.00 0.00 24 1011.3
20260507165502 14 124 3.2 8.0 0.00 0.00 0.00 24 1011.4
20260507165001 14 107 3.2 9.7 0.00 0.00 0.00 25 1011.5
20260507164502 13 140 1.6 11.3 0.00 0.00 0.00 25 1011.5
20260507163601 13 173 6.4 8.0 0.00 0.00 0.00 25 1011.4
20260507163101 13 202 0.0 9.7 0.00 0.00 0.00 26 1011.5
20260507162559 13 202 6.4 9.7 0.00 0.00 0.00 24 1011.5
20260507162058 13 198 3.2 9.7 0.00 0.00 0.00 25 1011.6
20260507161600 12 224 1.6 9.7 0.00 0.00 0.00 26 1011.6
20260507161059 12 221 4.8 9.7 0.00 0.00 0.00 27 1011.8
20260507160555 12 202 6.4 11.3 0.00 0.00 0.00 28 1011.8
20260507160053 12 223 4.8 12.9 0.00 0.00 0.00 29 1011.9
20260507155553 11 193 4.8 11.3 0.00 0.00 0.00 29 1011.8
20260507155051 11 190 8.0 11.3 0.00 0.00 0.00 30 1011.8
20260507154553 11 201 6.4 11.3 0.00 0.00 0.00 30 1012.0
20260507154149 10 209 3.2 9.7 0.00 0.00 0.00 32 1011.8
20260507153549 10 209 0.0 9.7 0.00 0.00 0.00 31 1012.0
20260507153047 10 205 3.2 8.0 0.00 0.00 0.00 32 1012.0
20260507152548 10 217 1.6 6.4 0.00 0.00 0.00 32 1012.0
20260507152047 10 256 1.6 4.8 0.00 0.00 0.00 32 1012.1